Project,Study,Ord_Occ,Event_Num,Date_Time_UTC,Date_Time_PST,Lat_Dec,Lon_Dec,Sta_ID,Line,Sta,Depth,Pressure,Temp0,Temp1,Salt0,CorrSalt0,Salt1,CorrSalt1,O2ml/L,AveCorrO2ml/L,StaCorrO2ml/L,FluorV,AveEstChl,StaEstChl,ISUSV,AveEstNO3,StaEstNO3,SigThetaTS0,SigThetaTS1,BAT,XMiss,SPAR,PAR,BTL_Depth,BTL_Temp,BTL_Salt,BTL_O2ml/L,BTL_Chl,BTL_Pha,BTL_NO3
CalCOFI,0707NH,009,,29-Jun-2007 21:45:04,29-Jun-2007 13:45:04,32.17504,-118.88400,093.3 050.0,093.3,050.0,512.000,516.243,6.0262,6.0256,34.3312,34.3326,34.3360,34.3337,0.34100,0.30,0.30,0.0247,,,1.7136,31.68,38.178,27.0265,27.0304,0.3637,91.3077,2.0165e+03,9.9990e+03,,,,,,,
CalCOFI,0707NH,009,,29-Jun-2007 21:45:05,29-Jun-2007 13:45:05,32.17504,-118.88400,093.3 050.0,093.3,050.0,511.000,515.234,6.0379,6.0363,34.3306,34.3320,34.3353,34.3330,0.34093,0.30,0.30,0.0261,,,1.7727,32.94,39.754,27.0246,27.0285,0.3637,91.3070,2.0255e+03,9.9990e+03,511,6.04 ,34.333,  .25,,,40.1
CalCOFI,0707NH,009,,29-Jun-2007 21:45:12,29-Jun-2007 13:45:12,32.17503,-118.88403,093.3 050.0,093.3,050.0,510.000,514.224,6.0377,6.0374,34.3307,34.3321,34.3353,34.3330,0.33991,0.30,0.30,0.0253,,,1.7619,32.71,39.466,27.0246,27.0283,0.3638,91.3047,2.0438e+03,9.9990e+03,,,,,,,
CalCOFI,0707NH,009,,29-Jun-2007 21:45:18,29-Jun-2007 13:45:18,-9.990e-29,-118.88404,093.3 050.0,093.3,050.0,509.000,513.215,6.0378,6.0375,34.3306,34.3320,34.3352,34.3329,0.34003,0.30,0.30,0.0258,,,1.7827,33.16,40.021,27.0246,27.0283,0.3639,91.3046,2.0354e+03,9.9990e+03,,,,,,,
CalCOFI,0707NH,009,,29-Jun-2007 21:45:20,29-Jun-2007 13:45:20,32.17502,-118.88404,093.3 050.0,093.3,050.0,508.000,512.205,6.0464,6.0451,34.3305,34.3319,34.3351,34.3328,0.33951,0.30,0.30,0.0259,,,1.8252,34.06,41.154,27.0234,27.0272,0.3633,91.3164,2.0206e+03,9.9990e+03,,,,,,,
CalCOFI,0707NH,009,,29-Jun-2007 21:45:23,29-Jun-2007 13:45:23,32.17500,-118.88406,093.3 050.0,093.3,050.0,507.000,511.195,6.0516,6.0523,34.3302,34.3316,34.3348,34.3325,0.33976,0.30,0.30,0.0254,,,1.7753,33.00,39.823,27.0225,27.0260,0.3636,91.3115,2.0054e+03,9.9990e+03,,,,,,,
CalCOFI,0707NH,009,,29-Jun-2007 21:45:27,29-Jun-2007 13:45:27,32.17500,-118.88408,093.3 050.0,093.3,050.0,506.000,510.186,6.0553,6.0545,34.3297,34.3311,34.3345,34.3322,0.34041,0.30,0.30,0.0259,,,1.7118,31.64,38.130,27.0216,27.0255,0.3637,91.3083,1.9894e+03,9.9990e+03,,,,,,,
CalCOFI,0707NH,009,,29-Jun-2007 21:45:29,29-Jun-2007 13:45:29,32.17499,-118.88408,093.3 050.0,093.3,050.0,505.000,509.176,6.0755,6.0765,34.3294,34.3308,34.3340,34.3317,-9.990e-29,,0.30,0.0253,,,1.7890,33.29,40.189,27.0188,27.0223,0.3637,91.3074,1.9862e+03,9.9990e+03,,,,,,,
CalCOFI,0707NH,009,,29-Jun-2007 21:45:31,29-Jun-2007 13:45:31,32.17498,-118.88408,093.3 050.0,093.3,050.0,504.000,508.167,6.0812,6.0829,34.3303,34.3317,34.3342,34.3319,0.34092,0.30,0.30,0.0256,,,1.7748,32.99,39.810,27.0188,27.0216,0.3638,91.3053,1.9847e+03,9.9990e+03,,,,,,,
CalCOFI,0707NH,009,,29-Jun-2007 21:45:34,29-Jun-2007 13:45:34,32.17498,-118.88410,093.3 050.0,093.3,050.0,503.000,507.157,6.1008,6.0951,34.3295,34.3309,34.3341,34.3318,0.34154,0.30,0.30,0.0262,,,1.8493,34.58,41.797,27.0157,27.0200,0.3637,91.3071,1.9889e+03,9.9990e+03,,,,,,,
CalCOFI,0707NH,009,,29-Jun-2007 21:45:35,29-Jun-2007 13:45:35,32.17498,-118.88409,093.3 050.0,093.3,050.0,502.000,506.148,6.1254,6.1248,34.3280,34.3294,34.3321,34.3298,0.34145,0.30,0.30,0.0261,,,1.7992,33.51,40.461,27.0113,27.0147,0.3640,91.3020,1.9996e+03,9.9990e+03,,,,,,,
CalCOFI,0707NH,009,,29-Jun-2007 21:45:38,29-Jun-2007 13:45:38,32.17496,-118.88409,093.3 050.0,093.3,050.0,501.000,505.139,6.1213,6.1223,34.3283,34.3297,34.3324,34.3301,0.34270,0.30,0.30,0.0259,,,1.7579,32.63,39.359,27.0121,27.0152,0.3661,91.2536,2.0191e+03,9.9990e+03,,,,,,,
CalCOFI,0707NH,009,,29-Jun-2007 21:45:42,29-Jun-2007 13:45:42,32.17496,-118.88410,093.3 050.0,093.3,050.0,500.000,504.129,6.1200,6.1190,34.3280,34.3294,34.3325,34.3302,0.34408,0.30,0.30,0.0255,,,1.7675,32.83,39.615,27.0120,27.0157,0.3650,91.2793,2.0537e+03,9.9990e+03,,,,,,,
CalCOFI,0707NH,009,,29-Jun-2007 21:45:43,29-Jun-2007 13:45:43,32.17496,-118.88410,093.3 050.0,093.3,050.0,499.000,503.120,6.1481,6.1474,34.3268,34.3282,34.3312,34.3289,0.34439,0.30,0.30,0.0254,,,1.7352,32.14,38.754,27.0075,27.0111,0.3637,91.3070,2.0671e+03,9.9990e+03,,,,,,,
CalCOFI,0707NH,009,,29-Jun-2007 21:45:44,29-Jun-2007 13:45:44,32.17496,-118.88411,093.3 050.0,093.3,050.0,498.000,502.110,6.1562,6.1559,34.3272,34.3286,34.3314,34.3291,0.34500,0.30,0.30,0.0258,,,1.7546,32.56,39.271,27.0068,27.0101,0.3645,91.2909,2.0778e+03,9.9990e+03,,,,,,,
CalCOFI,0707NH,009,,29-Jun-2007 21:45:47,29-Jun-2007 13:45:47,32.17494,-118.88412,093.3 050.0,093.3,050.0,497.000,501.101,6.1539,6.1518,34.3273,34.3287,34.3313,34.3290,0.34497,0.30,0.30,0.0258,,,1.7567,32.60,39.327,27.0072,27.0106,0.3642,91.2963,2.1012e+03,9.9990e+03,,,,,,,
CalCOFI,0707NH,009,,29-Jun-2007 21:45:49,29-Jun-2007 13:45:49,32.17494,-118.88412,093.3 050.0,093.3,050.0,496.000,500.091,6.1557,6.1531,34.3270,34.3284,34.3313,34.3290,0.34505,0.30,0.30,0.0256,,,1.7930,33.38,40.295,27.0067,27.0104,0.3642,91.2962,2.1258e+03,9.9990e+03,,,,,,,
CalCOFI,0707NH,009,,29-Jun-2007 21:45:51,29-Jun-2007 13:45:51,32.17494,-118.88413,093.3 050.0,093.3,050.0,495.000,499.082,6.1647,6.1646,34.3267,34.3281,34.3308,34.3285,0.34605,0.30,0.30,0.0254,,,1.7100,31.61,38.082,27.0053,27.0085,0.3642,91.2976,2.1273e+03,9.9990e+03,,,,,,,
CalCOFI,0707NH,009,,29-Jun-2007 21:45:52,29-Jun-2007 13:45:52,32.17494,-118.88414,093.3 050.0,093.3,050.0,494.000,498.072,6.1683,6.1681,34.3260,34.3274,34.3301,34.3278,0.34931,0.31,0.31,0.0261,,,1.7475,32.41,39.082,27.0042,27.0075,0.3660,91.2549,2.1274e+03,9.9990e+03,,,,,,,
CalCOFI,0707NH,009,,29-Jun-2007 21:45:56,29-Jun-2007 13:45:56,32.17493,-118.88414,093.3 050.0,093.3,050.0,493.000,497.063,6.1687,6.1695,34.3252,34.3266,34.3294,34.3271,0.34866,0.31,0.31,0.0258,,,1.7751,33.00,39.818,27.0035,27.0068,0.3644,91.2918,2.1296e+03,9.9990e+03,,,,,,,
CalCOFI,0707NH,009,,29-Jun-2007 21:45:59,29-Jun-2007 13:45:59,32.17493,-118.88414,093.3 050.0,093.3,050.0,492.000,496.053,6.1686,6.1720,34.3253,34.3267,34.3290,34.3267,0.35130,0.31,0.31,0.0254,,,1.7387,32.22,38.847,27.0036,27.0061,0.3644,91.2911,2.1251e+03,9.9990e+03,,,,,,,
CalCOFI,0707NH,009,,29-Jun-2007 21:46:00,29-Jun-2007 13:46:00,32.17494,-118.88415,093.3 050.0,093.3,050.0,491.000,495.044,6.1926,6.1927,34.3230,34.3244,34.3273,34.3250,0.35187,0.31,0.31,0.0253,,,1.7267,31.96,38.527,26.9988,27.0021,0.3639,91.3033,2.1151e+03,9.9990e+03,,,,,,,
CalCOFI,0707NH,009,,29-Jun-2007 21:46:01,29-Jun-2007 13:46:01,32.17494,-118.88416,093.3 050.0,093.3,050.0,490.000,494.034,6.2014,6.2013,34.3224,34.3238,34.3264,34.3241,0.35426,0.31,0.31,0.0254,,,1.7300,32.03,38.615,26.9971,27.0003,0.3642,91.2962,2.1119e+03,9.9990e+03,,,,,,,
CalCOFI,0707NH,009,,29-Jun-2007 21:46:02,29-Jun-2007 13:46:02,32.17492,-118.88416,093.3 050.0,093.3,050.0,489.000,493.025,6.2014,6.2010,34.3219,34.3233,34.3259,34.3236,0.35443,0.31,0.31,0.0255,,,1.7599,32.67,39.413,26.9967,26.9999,0.3644,91.2925,2.1013e+03,9.9990e+03,,,,,,,
CalCOFI,0707NH,009,,29-Jun-2007 21:46:06,29-Jun-2007 13:46:06,32.17492,-118.88416,093.3 050.0,093.3,050.0,488.000,492.016,6.1920,6.1927,34.3231,34.3245,34.3269,34.3246,0.35613,0.31,0.31,0.0258,,,1.7380,32.20,38.828,26.9988,27.0017,0.3650,91.2791,2.0619e+03,9.9990e+03,,,,,,,
CalCOFI,0707NH,009,,29-Jun-2007 21:46:08,29-Jun-2007 13:46:08,32.17492,-118.88416,093.3 050.0,093.3,050.0,487.000,491.006,6.1971,6.1995,34.3225,34.3239,34.3258,34.3235,0.35807,0.32,0.32,0.0252,,,1.7431,32.31,38.964,26.9977,27.0000,0.3642,91.2977,2.0532e+03,9.9990e+03,,,,,,,
CalCOFI,0707NH,009,,29-Jun-2007 21:46:11,29-Jun-2007 13:46:11,32.17490,-118.88418,093.3 050.0,093.3,050.0,486.000,489.997,6.1988,6.1998,34.3220,34.3234,34.3257,34.3234,0.35877,0.32,0.32,0.0256,,,1.7121,31.65,38.138,26.9971,26.9999,0.3644,91.2932,2.0384e+03,9.9990e+03,,,,,,,
CalCOFI,0707NH,009,,29-Jun-2007 21:46:14,29-Jun-2007 13:46:14,32.17492,-118.88418,093.3 050.0,093.3,050.0,485.000,488.987,6.2000,6.2008,34.3216,34.3230,34.3254,34.3231,0.36260,0.32,0.32,0.0260,,,1.7499,32.46,39.146,26.9966,26.9995,0.3646,91.2877,2.0134e+03,9.9990e+03,,,,,,,
CalCOFI,0707NH,009,,29-Jun-2007 21:46:15,29-Jun-2007 13:46:15,32.17490,-118.88418,093.3 050.0,093.3,050.0,484.000,487.978,6.2139,6.2135,34.3191,34.3205,34.3232,34.3209,0.36486,0.32,0.32,0.0261,,,1.7679,32.84,39.626,26.9928,26.9961,0.3641,91.2995,1.9935e+03,9.9990e+03,,,,,,,
CalCOFI,0707NH,009,,29-Jun-2007 21:46:16,29-Jun-2007 13:46:16,32.17490,-118.88418,093.3 050.0,093.3,050.0,483.000,486.968,6.2188,6.2202,34.3180,34.3194,34.3215,34.3192,0.36817,0.33,0.33,0.0261,,,1.7862,33.23,40.114,26.9914,26.9939,0.3644,91.2925,1.9751e+03,9.9990e+03,,,,,,,
CalCOFI,0707NH,009,,29-Jun-2007 21:46:19,29-Jun-2007 13:46:19,32.17490,-118.88420,093.3 050.0,093.3,050.0,482.000,485.959,6.2181,6.2187,34.3178,34.3192,34.3214,34.3191,0.37133,0.33,0.33,0.0263,,,1.7503,32.47,39.156,26.9913,26.9940,0.3644,91.2912,1.9345e+03,9.9990e+03,,,,,,,
CalCOFI,0707NH,009,,29-Jun-2007 21:46:23,29-Jun-2007 13:46:23,32.17490,-118.88421,093.3 050.0,093.3,050.0,481.000,484.950,6.2225,6.2197,34.3176,34.3190,34.3221,34.3198,0.37514,0.33,0.33,0.0263,,,1.7956,33.43,40.365,26.9905,26.9944,0.3646,91.2879,1.8741e+03,9.9990e+03,,,,,,,
CalCOFI,0707NH,009,,29-Jun-2007 21:46:24,29-Jun-2007 13:46:24,32.17490,-118.88422,093.3 050.0,093.3,050.0,480.000,483.940,6.2555,6.2546,34.3157,34.3171,34.3198,34.3175,0.37571,0.34,0.33,0.0258,,,1.7023,31.44,37.876,26.9848,26.9881,0.3645,91.2888,1.8700e+03,9.9990e+03,,,,,,,
CalCOFI,0707NH,009,,29-Jun-2007 21:46:25,29-Jun-2007 13:46:25,32.17490,-118.88422,093.3 050.0,093.3,050.0,479.000,482.931,6.2784,6.2780,34.3161,34.3175,34.3201,34.3178,0.37605,0.34,0.33,0.0255,,,1.7340,32.12,38.722,26.9821,26.9853,0.3650,91.2798,1.8514e+03,9.9990e+03,,,,,,,
CalCOFI,0707NH,009,,29-Jun-2007 21:46:28,29-Jun-2007 13:46:28,32.17489,-118.88423,093.3 050.0,093.3,050.0,478.000,481.922,6.2517,6.2621,34.3164,34.3178,34.3201,34.3178,0.37790,0.34,0.34,0.0258,,,1.7611,32.70,39.445,26.9858,26.9874,0.3650,91.2780,1.8311e+03,9.9990e+03,,,,,,,
CalCOFI,0707NH,009,,29-Jun-2007 21:46:31,29-Jun-2007 13:46:31,32.17490,-118.88422,093.3 050.0,093.3,050.0,477.000,480.912,6.2821,6.2788,34.3164,34.3178,34.3205,34.3182,0.37762,0.34,0.34,0.0258,,,1.7562,32.59,39.314,26.9819,26.9855,0.3646,91.2882,1.8218e+03,9.9990e+03,,,,,,,
CalCOFI,0707NH,009,,29-Jun-2007 21:46:32,29-Jun-2007 13:46:32,32.17490,-118.88422,093.3 050.0,093.3,050.0,476.000,479.903,6.3088,6.3076,34.3167,34.3181,34.3204,34.3181,0.37691,0.34,0.34,0.0258,,,1.7508,32.48,39.170,26.9787,26.9818,0.3644,91.2913,1.8224e+03,9.9990e+03,,,,,,,
CalCOFI,0707NH,009,,29-Jun-2007 21:46:33,29-Jun-2007 13:46:33,32.17490,-118.88423,093.3 050.0,093.3,050.0,475.000,478.893,6.3080,6.3082,34.3171,34.3185,34.3206,34.3183,0.37725,0.34,0.34,0.0255,,,1.7441,32.33,38.991,26.9791,26.9818,0.3648,91.2835,1.8223e+03,9.9990e+03,,,,,,,
CalCOFI,0707NH,009,,29-Jun-2007 21:46:37,29-Jun-2007 13:46:37,32.17490,-118.88424,093.3 050.0,093.3,050.0,474.000,477.884,6.2989,6.3006,34.3167,34.3181,34.3205,34.3182,0.37794,0.34,0.34,0.0259,,,1.7452,32.36,39.020,26.9799,26.9827,0.3651,91.2767,1.8219e+03,9.9990e+03,,,,,,,
CalCOFI,0707NH,009,,29-Jun-2007 21:46:40,29-Jun-2007 13:46:40,32.17490,-118.88424,093.3 050.0,093.3,050.0,473.000,476.875,6.3041,6.3056,34.3165,34.3179,34.3203,34.3180,0.37959,0.34,0.34,0.0251,,,1.6959,31.31,37.706,26.9791,26.9819,0.3648,91.2827,1.8224e+03,9.9990e+03,,,,,,,
CalCOFI,0707NH,009,,29-Jun-2007 21:46:41,29-Jun-2007 13:46:41,32.17488,-118.88425,093.3 050.0,093.3,050.0,472.000,475.865,6.3594,6.3592,34.3151,34.3165,34.3193,34.3170,0.38058,0.34,0.34,0.0258,,,1.7060,31.52,37.975,26.9707,26.9741,0.3658,91.2613,1.8188e+03,9.9990e+03,,,,,,,
CalCOFI,0707NH,009,,29-Jun-2007 21:46:43,29-Jun-2007 13:46:43,32.17488,-118.88426,093.3 050.0,093.3,050.0,471.000,474.856,6.3829,6.3808,34.3153,34.3167,34.3190,34.3167,0.38186,0.34,0.34,0.0263,,,1.7437,32.33,38.980,26.9679,26.9711,0.3659,91.2586,1.8159e+03,9.9990e+03,,,,,,,
CalCOFI,0707NH,009,,29-Jun-2007 21:46:46,29-Jun-2007 13:46:46,32.17488,-118.88426,093.3 050.0,093.3,050.0,470.000,473.847,6.3773,6.3744,34.3150,34.3164,34.3186,34.3163,0.38472,0.34,0.34,0.0257,,,1.7279,31.99,38.559,26.9683,26.9716,0.3662,91.2517,1.8142e+03,9.9990e+03,,,,,,,
CalCOFI,0707NH,009,,29-Jun-2007 21:46:48,29-Jun-2007 13:46:48,32.17489,-118.88426,093.3 050.0,093.3,050.0,469.000,472.837,6.3858,6.3844,34.3143,34.3157,34.3181,34.3158,0.38819,0.35,0.35,0.0258,,,1.7311,32.06,38.644,26.9667,26.9698,0.3654,91.2700,1.8143e+03,9.9990e+03,,,,,,,
CalCOFI,0707NH,009,,29-Jun-2007 21:46:49,29-Jun-2007 13:46:49,32.17489,-118.88427,093.3 050.0,093.3,050.0,468.000,471.828,6.3914,6.3909,34.3134,34.3148,34.3168,34.3145,0.38913,0.35,0.35,0.0255,,,1.7105,31.62,38.095,26.9652,26.9680,0.3654,91.2708,1.8143e+03,9.9990e+03,,,,,,,
CalCOFI,0707NH,009,,29-Jun-2007 21:46:52,29-Jun-2007 13:46:52,32.17488,-118.88428,093.3 050.0,093.3,050.0,467.000,470.819,6.3857,6.3868,34.3130,34.3144,34.3163,34.3140,0.38926,0.35,0.35,0.0255,,,1.7273,31.98,38.543,26.9657,26.9681,0.3661,91.2534,1.8141e+03,9.9990e+03,,,,,,,
CalCOFI,0707NH,009,,29-Jun-2007 21:46:55,29-Jun-2007 13:46:55,32.17490,-118.88428,093.3 050.0,093.3,050.0,466.000,469.809,6.3838,6.3852,34.3135,34.3149,34.3166,34.3143,0.39171,0.35,0.35,0.0263,,,1.7202,31.82,38.354,26.9663,26.9685,0.3660,91.2569,1.8085e+03,9.9990e+03,,,,,,,
CalCOFI,0707NH,009,,29-Jun-2007 21:46:56,29-Jun-2007 13:46:56,32.17489,-118.88428,093.3 050.0,093.3,050.0,465.000,468.800,6.4069,6.4089,34.3104,34.3118,34.3138,34.3115,0.39379,0.35,0.35,0.0265,,,1.7252,31.93,38.487,26.9608,26.9632,0.3658,91.2602,1.8068e+03,9.9990e+03,,,,,,,
CalCOFI,0707NH,009,,29-Jun-2007 21:46:57,29-Jun-2007 13:46:57,32.17488,-118.88429,093.3 050.0,093.3,050.0,464.000,467.791,6.4444,6.4435,34.3111,34.3125,34.3146,34.3123,0.39480,0.36,0.35,0.0257,,,1.7091,31.59,38.058,26.9564,26.9593,0.3671,91.2305,1.8022e+03,9.9990e+03,,,,,,,
CalCOFI,0707NH,009,,29-Jun-2007 21:47:01,29-Jun-2007 13:47:01,32.17488,-118.88432,093.3 050.0,093.3,050.0,463.000,466.782,6.3969,6.4062,34.3118,34.3132,34.3149,34.3126,0.39415,0.35,0.35,0.0265,,,1.6918,31.22,37.596,26.9632,26.9644,0.3662,91.2528,1.7758e+03,9.9990e+03,,,,,,,
CalCOFI,0707NH,009,,29-Jun-2007 21:47:03,29-Jun-2007 13:47:03,32.17488,-118.88431,093.3 050.0,093.3,050.0,462.000,465.772,6.4301,6.4329,34.3115,34.3129,34.3152,34.3129,0.39332,0.35,0.35,0.0258,,,1.7172,31.76,38.274,26.9586,26.9612,0.3659,91.2595,1.7599e+03,9.9990e+03,,,,,,,
CalCOFI,0707NH,009,,29-Jun-2007 21:47:04,29-Jun-2007 13:47:04,32.17488,-118.88432,093.3 050.0,093.3,050.0,461.000,464.763,6.4667,6.4667,34.3132,34.3146,34.3166,34.3143,0.39337,0.35,0.35,0.0252,,,1.6893,31.17,37.530,26.9552,26.9578,0.3661,91.2551,1.7500e+03,9.9990e+03,,,,,,,
CalCOFI,0707NH,009,,29-Jun-2007 21:47:06,29-Jun-2007 13:47:06,32.17488,-118.88433,093.3 050.0,093.3,050.0,460.000,463.754,6.4604,6.4618,34.3131,34.3145,34.3164,34.3141,0.39389,0.35,0.35,0.0255,,,1.7243,31.91,38.463,26.9559,26.9583,0.3665,91.2440,1.7269e+03,9.9990e+03,,,,,,,
CalCOFI,0707NH,009,,29-Jun-2007 21:47:10,29-Jun-2007 13:47:10,32.17488,-118.88434,093.3 050.0,093.3,050.0,459.000,462.744,6.4524,6.4540,34.3124,34.3138,34.3161,34.3138,-9.990e-29,,0.35,0.0258,,,1.7217,31.86,38.394,26.9564,26.9591,0.3667,91.2398,1.6919e+03,9.9990e+03,,,,,,,
CalCOFI,0707NH,009,,29-Jun-2007 21:47:11,29-Jun-2007 13:47:11,32.17488,-118.88434,093.3 050.0,093.3,050.0,458.000,461.735,6.4715,6.4730,34.3131,34.3145,34.3166,34.3143,0.39228,0.35,0.35,0.0254,,,1.7622,32.72,39.474,26.9544,26.9570,0.3664,91.2479,1.6866e+03,9.9990e+03,,,,,,,
CalCOFI,0707NH,009,,29-Jun-2007 21:47:12,29-Jun-2007 13:47:12,32.17488,-118.88436,093.3 050.0,093.3,050.0,457.000,460.726,6.4789,6.4790,34.3131,34.3145,34.3163,34.3140,0.39375,0.35,0.35,0.0259,,,1.7116,31.64,38.124,26.9535,26.9560,0.3665,91.2450,1.6800e+03,9.9990e+03,,,,,,,
CalCOFI,0707NH,009,,29-Jun-2007 21:47:15,29-Jun-2007 13:47:15,32.17488,-118.88436,093.3 050.0,093.3,050.0,456.000,459.717,6.4805,6.4806,34.3131,34.3145,34.3163,34.3140,0.39385,0.35,0.35,0.0272,,,1.7445,32.34,39.002,26.9532,26.9557,0.3671,91.2307,1.6756e+03,9.9990e+03,,,,,,,
CalCOFI,0707NH,009,,29-Jun-2007 21:47:17,29-Jun-2007 13:47:17,32.17488,-118.88437,093.3 050.0,093.3,050.0,455.000,458.707,6.4811,6.4799,34.3128,34.3142,34.3162,34.3139,0.39475,0.36,0.35,0.0259,,,1.7121,31.65,38.138,26.9529,26.9557,0.3663,91.2486,1.6725e+03,9.9990e+03,,,,,,,
CalCOFI,0707NH,009,,29-Jun-2007 21:47:19,29-Jun-2007 13:47:19,32.17488,-118.88438,093.3 050.0,093.3,050.0,454.000,457.698,6.4913,6.4915,34.3118,34.3132,34.3150,34.3127,0.39775,0.36,0.36,0.0256,,,1.7265,31.96,38.522,26.9507,26.9533,0.3678,91.2159,1.6706e+03,9.9990e+03,,,,,,,
CalCOFI,0707NH,009,,29-Jun-2007 21:47:20,29-Jun-2007 13:47:20,32.17488,-118.88438,093.3 050.0,093.3,050.0,453.000,456.689,6.5004,6.5016,34.3107,34.3121,34.3137,34.3114,0.39895,0.36,0.36,0.0258,,,1.6875,31.13,37.482,26.9487,26.9509,0.3660,91.2560,1.6708e+03,9.9990e+03,,,,,,,
CalCOFI,0707NH,009,,29-Jun-2007 21:47:23,29-Jun-2007 13:47:23,32.17488,-118.88440,093.3 050.0,093.3,050.0,452.000,455.679,6.5027,6.5013,34.3111,34.3125,34.3140,34.3117,0.40085,0.36,0.36,0.0253,,,1.7579,32.63,39.359,26.9487,26.9511,0.3662,91.2525,1.6707e+03,9.9990e+03,,,,,,,
CalCOFI,0707NH,009,,29-Jun-2007 21:47:25,29-Jun-2007 13:47:25,32.17488,-9.990e-29,093.3 050.0,093.3,050.0,451.000,454.670,6.5248,6.5225,34.3107,34.3121,34.3143,34.3120,0.40172,0.36,0.36,0.0259,,,1.7305,32.04,38.628,26.9454,26.9486,0.3661,91.2529,1.6708e+03,9.9990e+03,,,,,,,
CalCOFI,0707NH,009,,29-Jun-2007 21:47:27,29-Jun-2007 13:47:27,32.17488,-9.990e-29,093.3 050.0,093.3,050.0,450.000,453.661,6.5464,6.5441,34.3103,34.3117,34.3137,34.3114,0.40319,0.36,0.36,0.0259,,,1.7198,31.82,38.343,26.9423,26.9452,0.3663,91.2490,1.6697e+03,9.9990e+03,,,,,,,
CalCOFI,0707NH,009,,29-Jun-2007 21:47:29,29-Jun-2007 13:47:29,32.17488,-118.88442,093.3 050.0,093.3,050.0,449.000,452.652,6.5500,6.5499,34.3103,34.3117,34.3134,34.3111,0.40409,0.37,0.36,0.0260,,,1.6946,31.28,37.671,26.9418,26.9442,0.3661,91.2533,1.6664e+03,9.9990e+03,,,,,,,
CalCOFI,0707NH,009,,29-Jun-2007 21:47:30,29-Jun-2007 13:47:30,32.17488,-118.88443,093.3 050.0,093.3,050.0,448.000,451.643,6.5562,6.5559,34.3101,34.3115,34.3132,34.3109,0.40463,0.37,0.36,0.0258,,,1.7272,31.97,38.540,26.9408,26.9433,0.3689,91.1908,1.6664e+03,9.9990e+03,,,,,,,
CalCOFI,0707NH,009,,29-Jun-2007 21:47:33,29-Jun-2007 13:47:33,32.17488,-118.88445,093.3 050.0,093.3,050.0,447.000,450.633,6.5598,6.5594,34.3100,34.3114,34.3132,34.3109,0.40516,0.37,0.37,0.0261,,,1.7306,32.05,38.631,26.9402,26.9428,0.3668,91.2391,1.6665e+03,9.9990e+03,,,,,,,
CalCOFI,0707NH,009,,29-Jun-2007 21:47:35,29-Jun-2007 13:47:35,32.17488,-118.88446,093.3 050.0,093.3,050.0,446.000,449.624,6.5639,6.5644,34.3098,34.3112,34.3129,34.3106,0.40680,0.37,0.37,0.0256,,,1.7082,31.57,38.034,26.9395,26.9419,0.3672,91.2285,1.6676e+03,9.9990e+03,,,,,,,
CalCOFI,0707NH,009,,29-Jun-2007 21:47:36,29-Jun-2007 13:47:36,32.17488,-118.88446,093.3 050.0,093.3,050.0,445.000,448.615,6.5748,6.5747,34.3098,34.3112,34.3129,34.3106,0.40712,0.37,0.37,0.0256,,,1.7122,31.65,38.140,26.9381,26.9405,0.3658,91.2611,1.6708e+03,9.9990e+03,,,,,,,
CalCOFI,0707NH,009,,29-Jun-2007 21:47:37,29-Jun-2007 13:47:37,32.17488,-118.88446,093.3 050.0,093.3,050.0,444.000,447.606,6.5842,6.5836,34.3094,34.3108,34.3126,34.3103,-9.990e-29,,0.37,0.0257,,,1.6938,31.26,37.650,26.9365,26.9391,0.3663,91.2502,1.6706e+03,9.9990e+03,,,,,,,
CalCOFI,0707NH,009,,29-Jun-2007 21:47:41,29-Jun-2007 13:47:41,32.17488,-118.88450,093.3 050.0,093.3,050.0,443.000,446.597,6.5730,6.5745,34.3095,34.3109,34.3124,34.3101,0.40890,0.37,0.37,0.0260,,,1.7302,32.04,38.620,26.9380,26.9402,0.3672,91.2297,1.6782e+03,9.9990e+03,,,,,,,
CalCOFI,0707NH,009,,29-Jun-2007 21:47:43,29-Jun-2007 13:47:43,32.17488,-118.88450,093.3 050.0,093.3,050.0,442.000,445.587,6.5790,6.5826,34.3092,34.3106,34.3122,34.3099,0.41225,0.37,0.37,0.0260,,,1.6927,31.24,37.620,26.9370,26.9389,0.3666,91.2427,1.6860e+03,9.9990e+03,,,,,,,
CalCOFI,0707NH,009,,29-Jun-2007 21:47:45,29-Jun-2007 13:47:45,32.17488,-118.88450,093.3 050.0,093.3,050.0,441.000,444.578,6.5943,6.5972,34.3071,34.3085,34.3097,34.3074,0.41357,0.38,0.37,0.0256,,,1.7238,31.90,38.450,26.9333,26.9350,0.3669,91.2367,1.7054e+03,9.9990e+03,,,,,,,
CalCOFI,0707NH,009,,29-Jun-2007 21:47:47,29-Jun-2007 13:47:47,32.17488,-118.88453,093.3 050.0,093.3,050.0,440.000,443.569,6.5948,6.5944,34.3073,34.3087,34.3105,34.3082,0.41695,0.38,0.38,0.0266,,,1.7014,31.42,37.852,26.9334,26.9360,0.3670,91.2344,1.7324e+03,9.9990e+03,,,,,,,
CalCOFI,0707NH,009,,29-Jun-2007 21:47:52,29-Jun-2007 13:47:52,32.17488,-118.88454,093.3 050.0,093.3,050.0,439.000,442.560,6.5980,6.5985,34.3067,34.3081,34.3098,34.3075,0.42024,0.38,0.38,0.0253,,,1.6940,31.27,37.655,26.9325,26.9348,0.3665,91.2442,1.7543e+03,9.9990e+03,439,6.61 ,34.309,  .35,,,38.3
CalCOFI,0707NH,009,,29-Jun-2007 21:47:54,29-Jun-2007 13:47:54,32.17488,-118.88456,093.3 050.0,093.3,050.0,438.000,441.551,6.6069,6.6067,34.3057,34.3071,34.3085,34.3062,0.42212,0.38,0.38,0.0263,,,1.7344,32.13,38.732,26.9305,26.9328,0.3665,91.2442,1.7593e+03,9.9990e+03,,,,,,,
CalCOFI,0707NH,009,,29-Jun-2007 21:48:05,29-Jun-2007 13:48:05,32.17488,-118.88459,093.3 050.0,093.3,050.0,437.000,440.541,6.6049,6.6064,34.3059,34.3073,34.3086,34.3063,0.42482,0.39,0.39,0.0262,,,1.6985,31.36,37.775,26.9309,26.9329,0.3668,91.2373,1.7331e+03,9.9990e+03,,,,,,,
CalCOFI,0707NH,009,,29-Jun-2007 21:49:20,29-Jun-2007 13:49:20,32.17486,-118.88479,093.3 050.0,093.3,050.0,436.000,439.532,6.6127,6.6112,34.3047,34.3061,34.3078,34.3055,0.42936,0.39,0.39,0.0264,,,1.6802,30.97,37.287,26.9289,26.9316,0.3662,91.2511,1.5741e+03,9.9990e+03,,,,,,,
CalCOFI,0707NH,009,,29-Jun-2007 21:49:38,29-Jun-2007 13:49:38,32.17486,-118.88482,093.3 050.0,093.3,050.0,435.000,438.523,6.6182,6.6181,34.3028,34.3042,34.3057,34.3034,0.43345,0.40,0.39,0.0256,,,1.6899,31.18,37.546,26.9267,26.9290,0.3660,91.2574,1.5656e+03,9.9990e+03,,,,,,,
CalCOFI,0707NH,009,,29-Jun-2007 21:49:40,29-Jun-2007 13:49:40,32.17486,-9.990e-29,093.3 050.0,093.3,050.0,434.000,437.514,6.6215,6.6227,34.3023,34.3037,34.3049,34.3026,0.43599,0.40,0.40,0.0261,,,1.6859,31.09,37.439,26.9258,26.9278,0.3665,91.2458,1.5685e+03,9.9990e+03,,,,,,,
CalCOFI,0707NH,009,,29-Jun-2007 21:49:42,29-Jun-2007 13:49:42,32.17486,-118.88484,093.3 050.0,093.3,050.0,433.000,436.505,6.6268,6.6260,34.3016,34.3030,34.3046,34.3023,0.44074,0.40,0.40,0.0262,,,1.7104,31.62,38.092,26.9245,26.9270,0.3664,91.2482,1.5743e+03,9.9990e+03,,,,,,,
CalCOFI,0707NH,009,,29-Jun-2007 21:49:44,29-Jun-2007 13:49:44,32.17486,-118.88484,093.3 050.0,093.3,050.0,432.000,435.495,6.6307,6.6307,34.3012,34.3026,34.3042,34.3019,0.44302,0.41,0.40,0.0266,,,1.6885,31.15,37.508,26.9237,26.9261,0.3683,91.2027,1.5836e+03,9.9990e+03,,,,,,,
CalCOFI,0707NH,009,,29-Jun-2007 21:49:47,29-Jun-2007 13:49:47,32.17486,-118.88486,093.3 050.0,093.3,050.0,431.000,434.486,6.6368,6.6359,34.3002,34.3016,34.3032,34.3009,0.44632,0.41,0.41,0.0258,,,1.7393,32.23,38.863,26.9221,26.9246,0.3666,91.2434,1.5970e+03,9.9990e+03,,,,,,,
CalCOFI,0707NH,009,,29-Jun-2007 21:49:48,29-Jun-2007 13:49:48,32.17486,-118.88486,093.3 050.0,093.3,050.0,430.000,433.477,6.6412,6.6413,34.2996,34.3010,34.3023,34.3000,0.44867,0.41,0.41,0.0257,,,1.6993,31.38,37.796,26.9210,26.9231,0.3660,91.2559,1.6050e+03,9.9990e+03,,,,,,,
CalCOFI,0707NH,009,,29-Jun-2007 21:49:49,29-Jun-2007 13:49:49,32.17486,-118.88486,093.3 050.0,093.3,050.0,429.000,432.468,6.6477,6.6478,34.2989,34.3003,34.3017,34.2994,0.44936,0.41,0.41,0.0259,,,1.7021,31.44,37.871,26.9196,26.9218,0.3671,91.2317,1.6072e+03,9.9990e+03,,,,,,,
CalCOFI,0707NH,009,,29-Jun-2007 21:49:53,29-Jun-2007 13:49:53,32.17486,-118.88487,093.3 050.0,093.3,050.0,428.000,431.459,6.6416,6.6438,34.2996,34.3010,34.3022,34.2999,0.45127,0.41,0.41,0.0264,,,1.7126,31.66,38.151,26.9209,26.9227,0.3667,91.2410,1.6228e+03,9.9990e+03,,,,,,,